Tracking 35280 objects as of 7-Sep-2026
HD Live streaming from Space Station
objects crossing your sky now

COSMOS 1481 DEB


NORAD ID: 27906
Int'l Code: 1983-070H
Launch date: July 8, 1983
Source: Commonwealth of Independent States (former USSR) (CIS)
Launch site: PLESETSK MISSILE AND SPACE COMPLEX (PKMTR)

Note: This is SATELLITE DEBRIS
Your satellite tracking list
Your tracking list is empty




NASA's NSSDC Master Catalog

Two Line Element Set (TLE):
1 27906U 83070H   18199.89189464 +.00022961 +00000-0 +79644-2 0  9991
2 27906 064.3376 243.8630 7450402 354.0448 007.0863 02.06934170160824
Source of the keplerian elements: AFSPC